COSMOS 1897

导读 | 豆包AI

COSMOS 1897是独立国协(CIS,继承自苏联)于1987年11月26日发射的卫星,隶属于苏联“宇宙”卫星系列。该系列卫星以军事应用为主,多承担情报收集、空间监测等任务,体现了冷战时期苏联航天技术水平,多数任务细节未公开。作为近地轨道卫星,它是美苏太空竞争阶段的产物,任务结束后已再入大气层销毁,见证了冷战后期太空军事侦察技术的发展。

Basic Information
目录编号:
18575
目录名称:
COSMOS 1897
国际标识:
1987-096A
轨道中心:
EARTH
卫星名称:
COSMOS 1897
卫星全名:
--
卫星状态:
在轨 (已飞行14036 天)
发射日期:
1987-11-26 UTC
国别 :
俄罗斯(独联体) (CIS)
星等 :
--
Orbit Information
数据来源 国际轨道数据 AOE轨道数据
星历时间 2026-04-30T21:54:39+0800
20小时前
查看轨道信息
2026-05-01T05:00:00+0800
13小时前
查看轨道信息
半长轴 42150.661km 42150.745km
偏心率 0.0006596 0.0006729
轨道倾角 11.092° 11.092°
近地点辐角 132.326° 132.313°
升交点赤经 327.219° 327.215°
平近点角 48.701° 155.399°
近地点 35744.721km 35744.244km
远地点 35800.327km 35800.972km
周期 1435.378分钟 1435.382分钟
每日圈数 1.00322 1.003217
Detailed Information
使用方式:
暂无
2D Orbit Map
3D Orbit Map
Orbit Altitude Analysis Chart
Orbit Inclination Analysis Chart
Orbit Comprehensive Analysis Chart
View Comprehensive Chart